RH
19 19 19 18 17 17 16 15 15 16 17 15 14 14 14 17 18 18 18 16 14 14 15 16 17 17 17 18 20 22 25 27 28 29 30 31 31 32 33 33 34 36 39 43 48 52 56 58 60 61 61 61 61 61 61 61 60 59 57 55 55 55 57 59 59 60 62 64 69 74 80 82 80 75 67 59 55 54 55 58 59 58 56 53 51 50
21 21 22 23 23 23 23 22 21 22 22 20 19 18 19 21 22 22 23 22 20 19 18 18 18 19 18 18 19 20 23 26 28 29 30 31 31 32 33 33 34 36 38 41 45 50 55 57 58 59 60 60 60 61 61 60 60 59 57 56 54 54 55 57 58 58 58 60 63 69 76 80 80 77 71 62 57 54 54 56 57 57 55 53 52 50
24 24 25 26 26 27 27 27 26 26 26 24 23 21 21 21 22 23 23 24 24 23 23 22 22 21 20 19 19 20 22 25 27 29 30 31 32 32 33 34 35 36 38 40 44 49 55 56 57 57 58 58 59 59 59 60 59 59 58 56 55 54 54 55 56 56 56 56 58 63 69 75 79 78 74 66 59 55 54 55 56 56 55 54 52 51
25 26 26 27 27 28 28 28 29 30 31 30 28 26 25 24 24 23 24 24 24 25 25 25 26 26 24 21 19 19 21 23 25 28 29 30 31 32 33 34 35 36 37 40 43 48 54 56 57 57 57 57 57 57 57 58 58 58 57 56 55 55 55 55 55 55 55 54 55 57 62 69 75 78 76 69 62 57 55 55 56 55 54 53 52 51
26 27 27 27 28 28 28 28 30 31 32 32 32 31 29 28 27 26 26 25 25 25 25 25 26 27 27 23 20 18 19 22 24 26 28 30 31 32 33 34 35 36 38 40 42 46 51 55 56 57 56 56 56 56 56 56 56 56 56 56 55 55 55 55 55 55 54 53 52 53 56 62 69 75 76 70 64 59 57 56 56 55 54 53 52 51
26 26 27 27 27 27 27 27 28 29 30 31 31 31 31 30 29 28 27 26 25 25 24 24 24 25 26 24 21 18 17 20 22 25 27 28 30 31 32 33 35 36 38 40 42 45 49 53 55 57 57 56 55 55 55 55 54 54 54 55 55 55 55 55 54 54 53 51 50 50 51 57 64 71 74 70 64 60 58 57 56 55 54 52 51 50
26 26 27 27 26 26 26 27 27 27 28 28 28 29 30 30 30 29 28 27 26 25 24 23 23 23 24 22 19 17 16 18 20 23 25 27 29 30 31 32 34 36 38 39 42 45 47 51 54 56 56 56 56 55 54 54 53 53 53 53 54 54 54 53 53 52 51 50 48 48 48 52 59 66 71 68 64 61 58 57 55 54 53 52 51 49
27 27 27 27 27 26 26 26 26 27 27 27 27 27 28 29 29 29 28 28 27 27 26 25 24 24 23 22 20 18 16 16 18 20 24 26 28 29 30 31 33 35 37 39 42 44 47 50 53 55 56 56 56 55 55 54 53 53 52 53 53 52 52 52 51 50 49 48 47 46 46 49 55 61 66 65 63 60 58 56 55 53 52 51 49 48
26 26 26 26 25 25 25 25 25 25 26 26 26 26 27 27 27 28 28 28 28 28 28 28 27 26 24 24 23 20 17 16 16 18 21 25 27 29 30 31 32 34 36 38 41 43 46 49 52 55 56 56 56 56 56 55 54 53 53 53 52 52 51 50 49 48 47 47 46 45 44 47 52 57 60 61 60 59 57 55 54 52 51 50 48 47
24 24 23 22 23 23 23 23 23 24 25 25 26 26 27 27 26 26 26 27 27 27 28 29 28 28 27 26 26 24 21 18 16 17 19 23 26 28 30 30 32 33 35 38 40 43 46 49 52 55 57 57 57 57 57 56 55 54 54 53 53 52 51 49 48 47 46 46 45 44 44 45 48 52 55 57 57 56 56 54 53 52 51 49 47 46
23 23 22 22 22 22 22 22 23 23 24 24 25 26 27 26 26 26 26 26 27 27 27 28 28 29 29 28 28 28 27 23 20 18 18 22 25 28 30 30 31 32 34 36 39 42 45 49 52 55 57 58 58 58 58 58 57 56 55 54 54 53 51 49 48 46 46 45 45 44 44 44 46 49 51 53 54 54 54 53 52 51 49 48 47 46
23 24 23 23 22 22 23 23 23 23 24 25 25 25 26 26 26 26 26 27 27 27 27 28 28 29 29 29 30 30 30 28 25 21 19 21 24 28 30 30 31 31 33 35 38 41 44 48 51 54 57 59 60 60 60 59 58 58 57 56 55 54 52 50 48 47 45 45 45 44 44 45 46 47 49 51 52 52 52 51 50 49 48 47 46 46
24 24 24 24 23 23 23 23 23 24 25 25 25 26 26 25 26 26 27 28 28 28 28 28 28 29 29 29 30 30 31 31 29 26 22 22 23 26 30 31 31 30 31 33 36 39 43 46 49 52 56 59 61 61 61 60 60 59 58 57 57 55 54 51 49 47 45 45 44 44 45 45 46 47 49 50 51 51 51 50 49 48 47 47 46 46
25 24 24 23 23 23 23 23 23 23 23 23 24 24 25 25 26 26 27 27 27 27 27 28 28 28 27 27 28 28 30 31 31 29 26 24 23 24 28 30 31 31 31 32 34 37 41 44 47 50 54 58 61 62 61 61 61 60 60 59 58 56 55 53 51 48 46 45 44 45 45 45 46 47 49 50 50 50 49 49 48 47 47 47 46 46
26 26 25 25 24 23 23 22 22 22 22 22 22 23 23 24 24 25 26 27 27 27 27 28 28 27 26 26 26 26 27 29 30 31 30 27 24 23 25 28 30 31 31 31 32 35 38 42 46 49 52 58 61 62 61 61 61 61 61 60 59 58 56 54 52 49 47 45 45 45 45 46 47 48 49 49 49 49 48 48 47 47 47 47 47 46
27 27 26 26 25 24 24 24 23 22 22 22 22 22 23 23 24 24 26 27 27 28 28 29 28 27 26 25 25 25 25 27 29 31 32 31 27 25 24 26 28 29 30 31 31 33 36 40 43 47 51 56 59 61 61 61 62 62 62 61 60 59 58 56 53 50 48 46 45 45 45 46 47 48 49 49 49 48 48 47 47 47 48 48 48 47
29 29 29 28 26 25 24 24 24 23 23 23 23 23 24 24 24 25 26 28 28 28 30 29 28 27 27 26 26 26 25 26 27 29 31 31 30 29 27 26 27 28 29 30 30 31 33 37 41 44 49 54 58 61 62 62 62 62 62 62 61 60 59 57 55 52 49 48 47 46 46 47 48 49 49 49 48 47 47 46 46 47 49 49 49 48
30 30 30 30 28 26 25 24 24 24 24 23 23 23 23 23 24 26 27 28 29 29 29 29 28 29 30 28 27 26 26 25 26 26 28 28 29 30 30 29 29 28 29 29 30 30 32 34 38 42 46 52 57 60 61 62 62 63 63 63 62 61 60 59 56 54 51 50 49 48 47 48 49 49 49 49 48 47 47 46 46 47 48 49 49 48
30 30 30 30 29 28 27 25 25 24 24 24 24 24 24 24 24 24 25 27 28 28 29 28 28 29 30 30 30 29 29 28 27 27 27 27 27 28 30 31 31 31 31 30 30 30 31 33 36 39 44 51 56 60 61 61 62 62 63 63 63 62 61 60 58 56 53 52 51 50 49 49 50 50 50 49 48 47 47 46 46 47 48 49 48 47
30 30 30 30 30 30 30 29 27 26 26 26 25 25 25 25 25 24 24 25 27 28 29 29 29 28 28 28 29 30 34 34 33 31 29 27 27 27 29 31 31 32 32 31 30 29 29 30 33 36 41 47 53 58 61 61 61 62 62 62 63 62 62 61 60 58 55 54 53 52 51 51 51 51 51 50 49 48 47 46 46 47 48 48 47 47
31 30 30 30 30 30 30 30 30 29 28 28 27 27 27 27 26 26 26 26 27 27 26 27 28 28 28 27 27 30 37 40 41 40 37 33 30 28 28 29 30 31 32 31 31 30 30 30 31 33 36 41 47 53 58 60 61 61 62 62 62 62 62 62 61 59 57 56 56 55 53 53 52 52 52 51 50 49 48 47 47 47 48 48 47 47
31 31 30 30 30 30 30 30 30 29 29 29 29 28 29 29 28 27 26 26 26 26 25 26 26 27 27 25 24 24 29 38 44 48 50 47 40 32 29 27 28 29 30 31 31 31 30 30 29 29 30 33 39 45 52 57 59 61 61 61 61 62 62 62 61 60 59 58 58 57 56 55 54 54 54 53 51 51 50 49 48 48 48 48 48 48
31 30 30 30 30 30 29 29 29 29 28 28 28 28 28 28 28 27 27 27 27 26 26 24 24 25 25 23 21 19 18 24 33 43 53 55 50 43 36 31 29 28 29 30 31 31 30 29 28 27 25 27 31 37 43 49 55 59 60 60 60 61 61 61 61 60 59 60 60 60 58 57 56 56 55 54 53 52 51 50 50 49 48 48 48 48
30 30 30 30 29 29 29 28 28 28 28 28 27 27 27 27 27 27 28 28 29 29 29 29 28 27 26 26 24 20 15 15 22 32 45 51 52 50 46 40 35 31 29 29 29 30 30 28 26 24 22 24 27 31 36 42 48 54 58 59 60 60 60 61 60 59 59 60 62 62 60 59 58 58 57 55 54 53 53 52 51 50 50 49 49 49
29 29 29 28 28 28 27 27 27 27 27 27 26 26 26 27 29 31 33 35 36 36 36 35 34 32 31 30 29 26 21 17 18 23 31 40 46 50 51 49 45 41 36 33 31 29 29 28 26 24 22 24 27 30 33 37 42 47 53 57 59 59 60 60 59 59 58 61 63 64 64 62 61 60 58 57 56 55 54 53 52 52 51 50 50 50
27 27 27 26 25 25 25 25 25 25 25 25 25 25 25 26 28 29 32 34 36 37 38 37 36 35 36 36 34 31 29 25 22 20 22 30 37 44 51 53 53 51 48 42 37 32 29 29 27 25 23 24 27 30 33 36 39 43 49 54 57 59 60 60 59 59 58 61 64 66 67 65 64 62 61 60 58 57 56 55 54 53 52 52 52 52
26 25 25 24 24 24 24 24 23 22 22 22 23 23 24 26 27 27 27 28 29 30 31 30 31 32 34 35 34 33 33 32 29 25 22 25 30 37 46 53 55 55 54 51 45 38 32 30 28 26 24 24 26 29 32 35 39 42 47 52 56 58 60 60 60 60 59 61 64 66 69 69 67 66 64 63 61 60 58 56 55 54 53 53 54 53
26 26 25 25 25 25 25 25 25 24 23 22 22 22 24 26 28 28 28 28 28 29 29 28 28 29 30 31 32 32 33 33 32 30 29 28 28 31 37 47 52 54 54 53 49 44 38 34 31 28 25 25 26 28 31 35 38 42 46 51 55 59 61 62 62 61 61 62 64 66 69 71 70 69 67 65 64 62 60 58 56 55 55 55 55 54
26 26 25 25 25 25 26 26 26 26 27 26 26 26 27 29 30 30 29 29 30 31 30 30 30 29 29 29 29 31 32 32 32 32 34 33 31 30 30 38 44 48 50 51 49 46 42 39 35 30 27 25 25 27 30 34 38 42 46 50 54 59 62 62 62 63 62 63 64 65 68 71 72 71 69 67 66 64 62 60 58 57 56 56 55 55
26 26 26 26 26 27 27 28 28 28 29 29 30 31 31 32 33 33 32 32 32 33 32 32 32 32 31 30 30 30 31 31 31 32 34 36 35 34 32 33 35 37 40 43 44 44 43 41 37 33 28 26 26 26 29 33 37 41 46 49 54 58 61 62 63 63 63 63 64 65 67 70 71 71 70 69 67 65 63 61 59 58 58 57 56 55
26 26 27 27 28 29 30 30 31 31 32 32 33 34 34 35 35 35 35 35 35 35 34 34 34 34 34 33 33 32 32 31 31 32 34 36 37 37 36 33 31 30 31 33 36 38 39 39 37 34 30 27 26 26 28 31 35 40 46 50 53 57 60 62 63 63 64 64 65 66 67 68 69 69 70 69 68 66 63 62 60 59 58 57 56 55
28 28 29 30 31 32 33 33 34 34 34 35 35 35 36 36 36 37 37 37 37 37 36 36 36 36 36 36 35 34 33 33 33 34 35 36 37 37 37 35 33 31 29 29 30 33 37 39 38 36 32 28 27 27 27 29 33 39 45 50 54 57 60 62 63 63 64 65 66 67 67 67 67 68 68 68 67 66 64 62 61 60 58 57 56 54
30 31 32 33 34 34 35 35 35 35 35 35 35 36 36 36 37 37 37 38 38 38 38 37 37 37 37 37 37 36 34 34 34 35 36 36 36 37 37 36 35 33 32 32 33 35 40 45 45 42 37 32 30 30 29 29 32 37 43 50 54 58 60 62 63 64 65 66 67 67 66 66 66 66 67 67 66 65 64 62 61 60 59 57 56 54
33 34 35 36 36 36 36 36 36 35 35 35 35 36 36 36 37 37 37 38 39 39 39 39 38 38 38 38 38 37 36 34 34 34 35 36 37 38 39 37 36 36 36 38 40 43 48 52 53 51 47 41 38 36 34 32 33 35 41 48 53 58 61 63 64 64 65 66 67 67 66 65 65 65 66 66 65 64 63 62 62 61 60 58 56 55
37 37 38 38 37 37 36 36 36 35 35 35 36 36 37 37 38 38 38 39 40 40 41 40 40 40 39 39 39 38 37 35 34 34 34 37 40 41 40 38 38 38 40 44 48 51 53 55 55 55 53 50 47 44 40 37 35 36 40 45 51 57 62 64 64 65 65 67 67 67 65 65 65 65 65 65 64 64 63 62 62 62 61 59 58 56
39 39 39 39 38 38 37 37 37 37 37 38 38 39 39 40 40 40 40 41 41 42 43 43 42 42 41 41 40 39 38 36 35 34 35 38 41 43 42 41 40 40 43 48 52 54 55 55 56 55 55 54 52 50 46 42 39 38 40 44 50 55 61 63 65 65 66 67 67 67 66 65 64 64 64 65 64 64 63 62 62 62 61 61 60 58
41 40 40 39 39 39 39 39 40 41 42 42 43 44 44 44 44 43 43 43 43 43 44 44 45 44 43 42 41 40 38 37 35 34 34 37 41 43 44 45 44 44 45 50 53 55 55 57 58 58 56 55 53 51 47 44 42 41 41 44 49 54 59 63 65 66 66 67 68 68 66 65 64 64 64 64 64 64 63 62 62 62 62 61 61 60
42 41 41 41 41 42 43 44 45 46 48 48 49 50 50 49 48 47 45 45 44 44 44 45 46 46 45 44 43 41 40 38 36 34 33 37 41 44 46 49 50 49 49 54 56 57 56 58 59 60 58 55 53 50 46 43 42 42 43 45 49 53 58 62 65 66 66 67 68 68 67 67 66 64 64 64 64 64 63 62 62 62 62 63 62 61
43 43 43 44 46 48 49 50 51 52 53 54 55 55 55 53 52 50 48 47 46 45 45 45 46 46 46 46 44 43 41 39 37 34 32 37 43 48 52 53 52 52 53 56 60 61 60 60 60 60 59 57 53 50 45 42 40 40 43 46 50 54 58 62 64 66 67 67 67 67 69 68 66 64 64 65 65 64 63 62 61 61 63 64 64 62
44 46 47 49 52 54 55 56 56 57 59 60 60 60 59 57 55 53 51 49 48 46 45 45 45 46 46 46 46 45 43 40 38 35 32 33 39 47 55 57 55 52 52 57 62 66 65 63 62 61 60 58 54 50 46 42 40 40 43 48 52 56 59 62 64 66 67 67 67 67 66 65 65 65 65 66 65 63 62 61 61 62 64 66 65 62
48 50 53 55 57 58 59 60 62 63 65 66 66 66 64 62 59 56 54 52 50 49 47 47 46 46 46 46 46 46 44 41 39 36 33 31 36 45 56 60 58 53 49 54 61 67 68 67 65 63 60 57 54 50 47 43 41 41 44 49 53 56 59 62 65 66 68 67 67 67 68 68 67 66 65 65 64 63 62 61 62 65 67 67 65 62
54 56 57 58 59 61 62 65 67 69 72 72 72 71 69 66 63 60 58 55 53 51 49 48 47 46 46 46 46 46 45 42 39 36 34 32 34 40 52 57 56 52 46 50 58 66 69 69 67 63 59 54 52 50 47 44 43 45 49 52 55 58 60 63 65 67 68 68 68 70 72 73 73 71 69 66 64 63 61 64 66 69 70 69 66 63
59 60 61 62 63 65 66 68 70 72 74 74 74 73 71 69 67 64 61 58 55 52 50 48 47 47 47 47 47 46 46 44 42 39 36 34 35 40 47 51 51 49 44 46 53 62 68 68 67 63 56 53 51 50 48 44 45 48 54 56 57 59 61 63 65 67 68 68 68 70 75 77 78 78 75 70 66 63 62 63 65 69 70 68 66 63
63 64 64 66 67 69 72 73 73 74 74 74 74 73 72 71 69 67 64 60 55 52 49 48 47 47 48 48 47 47 47 45 44 41 38 35 36 40 46 49 49 47 43 41 47 56 63 66 65 62 57 56 55 53 50 45 47 52 56 57 57 58 59 61 64 66 68 68 68 70 73 77 80 81 81 77 72 68 64 64 66 68 70 68 66 64
66 67 69 71 72 74 75 76 76 76 76 75 74 73 73 72 71 69 65 60 55 52 49 48 48 48 48 48 48 48 48 47 45 42 39 37 39 45 53 52 49 44 40 39 42 48 56 61 62 63 62 62 61 58 54 48 50 54 57 57 57 57 58 60 62 65 68 68 69 70 72 76 79 82 84 81 77 73 67 66 67 68 69 68 67 65
71 72 74 76 77 78 78 78 78 77 77 76 75 74 74 72 70 66 61 57 54 51 49 48 48 49 49 48 48 48 49 48 47 44 42 39 41 46 53 52 47 40 35 37 39 44 49 56 63 68 72 71 68 64 58 52 53 57 58 58 58 58 58 60 63 66 67 68 69 71 74 76 78 81 83 82 80 76 70 68 68 68 68 68 68 68
77 78 79 79 79 79 78 78 78 78 78 77 76 74 72 69 64 60 56 53 52 51 50 49 49 49 49 49 49 49 49 49 48 46 44 42 42 45 49 47 42 35 31 33 37 42 51 60 68 76 81 79 75 70 62 58 58 60 61 60 59 59 59 60 63 66 68 69 70 72 75 77 78 78 78 80 80 78 73 70 69 69 68 69 71 72
81 81 81 81 80 80 79 78 78 77 77 76 74 70 66 61 57 55 53 52 51 51 51 50 50 50 51 50 50 49 50 49 49 48 47 45 44 45 46 43 38 34 30 32 39 50 63 69 75 79 81 81 80 76 70 66 64 64 63 62 60 60 59 60 62 65 67 68 70 72 75 77 77 77 78 79 79 78 73 71 70 70 69 72 76 77
82 81 81 81 80 79 78 78 78 77 76 72 68 62 58 55 54 53 53 52 52 52 52 52 52 52 53 52 51 51 51 52 52 51 50 48 47 46 45 42 38 35 33 40 50 60 69 74 78 80 81 81 81 80 78 75 72 68 64 61 60 60 59 61 63 66 67 67 69 71 74 77 78 77 77 78 78 77 73 71 70 71 71 76 79 80
81 81 81 80 79 78 78 77 76 74 70 64 60 57 55 55 55 54 54 53 53 53 53 53 53 54 56 55 54 53 53 56 57 56 53 51 49 48 46 42 40 41 45 52 57 63 69 75 78 80 81 81 81 81 82 81 79 74 68 64 61 60 59 62 64 66 67 66 68 71 76 79 79 78 77 77 77 75 72 71 70 71 74 80 82 81
81 81 80 79 78 78 77 75 71 66 61 59 59 60 60 60 59 57 55 54 53 53 53 52 53 55 58 58 57 55 54 56 58 58 56 53 52 49 46 43 46 53 61 63 65 68 73 77 80 81 81 81 81 81 81 81 80 78 71 67 63 60 60 63 65 66 67 66 66 68 72 75 77 78 76 75 75 74 71 70 70 72 77 83 85 82